RH
100 100 100 98 84 89 97 85 80 68 48 38 46 48 73 56 36 30 27 26 25 26 33 41 41 40 40
94 92 97 100 100 100 100 97 81 59 75 64 71 78 67 67 60 49 36 34 36 39 43 48 47 48 48
99 100 99 100 100 100 96 96 97 88 83 77 78 77 74 73 66 59 54 43 46 50 54 51 50 49 47
93 91 96 99 100 99 98 100 100 98 95 91 90 87 81 74 69 67 63 61 58 53 50 49 45 33 22
86 90 96 100 100 95 90 85 85 87 85 77 70 62 58 55 52 50 50 50 46 36 24 16 14 14 14
83 86 89 93 90 71 70 73 74 71 72 70 66 62 57 53 42 30 20 15 13 15 17 19 25 30 32
87 89 91 83 73 73 76 74 74 75 66 46 28 15 13 14 16 16 19 23 29 37 43 48 52 54 52
97 95 90 75 76 65 29 19 16 14 13 12 16 19 28 33 40 45 54 59 61 61 62 62 62 60 60
92 97 88 79 66 66 51 24 14 18 22 25 32 47 56 61 64 69 71 70 70 69 69 72 79 79 77
97 92 79 63 53 62 17 19 26 32 46 57 64 69 71 72 74 74 73 75 80 86 90 92 87 70 41
100 91 70 70 78 26 19 23 40 57 64 75 79 78 79 81 82 81 85 92 96 95 65 30 16 12 11
91 76 85 68 19 20 27 45 64 73 79 85 84 84 86 88 91 91 96 70 33 25 20 12 9 11 17
80 89 76 19 19 28 45 65 81 81 81 81 83 87 89 90 94 94 68 29 23 26 10 14 17 12 6
93 80 20 14 16 32 47 70 87 86 82 84 88 89 91 94 100 86 38 34 16 9 12 10 7 7 10
92 26 14 11 11 26 46 70 85 84 85 85 85 92 98 95 97 75 48 36 9 11 6 12 20 22 20
74 26 16 10 9 16 29 62 86 85 81 83 92 97 96 97 90 62 27 11 8 14 21 23 19 22 26
71 29 25 12 8 9 20 56 83 85 85 92 100 88 38 11 10 11 8 15 22 22 21 25 27 23 21
Wind_Speed
35 40 38 45 46 44 45 43 44 46 45 44 42 43 50 49 49 49 49 51 53 53 55 59 62 66 68
31 35 36 44 44 41 45 49 43 45 48 49 52 55 54 55 56 55 56 55 57 59 64 65 64 58 55
27 29 32 33 36 39 44 52 51 53 54 55 56 58 57 57 60 62 62 62 65 64 56 55 52 51 50
24 24 25 27 28 30 31 33 38 41 44 44 43 44 45 45 47 47 47 47 47 46 46 47 48 48 49
27 25 24 23 24 26 28 30 30 32 33 34 36 35 36 36 38 39 40 42 44 45 45 46 47 49 49
27 24 23 24 25 26 26 27 29 29 30 32 32 34 35 36 38 40 40 42 43 44 45 45 44 43 43
24 23 23 24 25 25 25 25 26 27 29 30 31 33 33 35 37 38 39 40 41 40 39 38 39 39 39
22 23 24 26 25 24 23 23 24 26 27 29 30 30 31 32 33 34 34 34 34 35 35 35 36 36 35
23 24 26 26 25 25 25 25 25 26 27 28 28 28 28 29 29 29 30 31 31 32 32 32 32 33 33
23 24 25 25 25 25 23 23 24 26 26 25 25 26 26 27 27 28 28 28 27 27 28 29 31 32 33
25 25 24 26 24 24 23 24 24 24 25 24 24 25 26 26 27 26 25 25 25 25 28 30 32 33 35
23 23 24 22 21 22 22 22 23 24 25 25 24 24 25 25 24 23 22 23 24 27 30 31 32 33 33
22 23 21 20 20 21 20 20 22 23 23 23 23 24 24 24 22 22 21 24 26 29 29 29 31 33 31
21 19 19 18 20 20 20 20 21 23 23 23 23 23 23 22 22 22 23 27 30 29 28 27 27 29 34
18 18 17 18 19 19 19 21 22 22 22 23 23 22 20 21 23 23 26 30 26 26 26 29 32 36 41
18 17 17 18 18 17 19 20 22 23 22 22 22 19 20 22 24 26 28 22 22 26 31 37 43 47 48
18 17 17 17 17 18 19 19 21 21 20 21 18 19 21 22 21 18 19 22 27 33 38 42 44 46 50
Wind_Direction
260 251 254 249 252 255 252 253 255 257 259 259 260 264 263 266 268 269 270 269 268 269 272 275 277 276 276
264 261 262 253 254 255 255 253 254 257 256 258 261 263 259 263 264 268 268 270 271 273 275 277 275 275 273
264 263 261 260 259 259 259 256 256 258 259 259 262 265 268 267 265 268 266 268 270 271 271 272 272 272 273
272 267 265 262 262 262 261 260 259 260 261 262 263 265 266 267 268 268 269 269 269 270 270 272 273 275 276
276 273 272 268 265 264 263 262 263 263 264 264 264 267 268 268 269 269 270 271 271 272 273 274 276 276 276
271 272 271 269 273 278 275 268 265 267 270 271 270 271 271 272 272 273 274 274 274 275 275 274 273 273 272
268 269 269 273 277 277 275 272 272 271 271 270 271 271 272 273 274 274 275 275 275 275 275 275 275 275 276
269 270 273 279 279 275 274 273 275 274 273 274 275 278 279 279 279 279 278 277 276 277 278 279 280 279 279
264 268 276 281 276 275 274 275 276 276 277 278 278 279 278 278 278 278 279 279 280 280 279 279 280 281 281
266 276 277 276 276 274 277 278 280 280 279 278 277 277 277 277 280 283 283 282 282 282 283 283 284 285 284
274 274 273 276 272 275 278 279 279 277 277 274 273 276 278 280 283 283 283 284 285 286 287 287 286 286 285
273 271 275 271 274 275 278 280 279 278 275 272 275 279 283 286 285 283 283 288 291 290 289 289 288 288 287
273 274 269 272 274 275 280 282 280 280 277 276 278 283 285 283 280 280 285 292 294 294 292 291 292 291 290
275 268 269 271 273 277 282 283 283 282 279 279 281 282 282 278 280 282 289 296 296 294 294 296 294 296 298
268 271 268 271 274 279 287 287 282 280 279 281 280 283 279 283 282 284 290 299 296 296 298 300 299 299 300
262 269 272 271 276 282 286 287 284 280 280 282 286 282 284 285 285 289 295 292 293 298 302 304 305 304 303
257 268 273 276 277 283 286 290 288 285 283 286 283 288 291 289 290 287 290 299 305 306 306 305 305 304 304